Starlink 1570

operational
NORAD ID: 46059 Int'l Des: 2020-055 Owner: SPXS Country: US Constellation: starlink
LEOCIRCULARSTARLINK_TYPE

关于 Starlink 1570

正在加载描述...

实时位置

正在加载3D地球...

即将过境

高度历史

Altitude vs Time

uPlot chart will show altitude changes over time

两行轨道根数

1 46059U 20055AJ 25304.81042172 .00001262 00000-0 10362-3 0 9991
2 46059 53.0555 335.1819 0001722 89.9992 270.1195 15.06408062289564
Epoch: Oct 31, 2025 • Age: 20 hours

当前状态

高度 565.3 km
速度 7.58 km/s
星下点 -49.43°S, 8.21°W
发射日期 Aug 7, 2020
运行时间 5.2 years
类型 internet

技术详情

分类 Payload
质量 260.00 kg
干质量 248.00 kg
总质量 260.00 kg
长度 0.20 m
直径 2.80 m
跨度 9.00 m
形状 Box + pan
制造商 SPXS
平台类型 Starlink
阶段状态 In Orbit
所有者/国家 SPXS/US

大型星座

Loading constellations...